Location: Demmingen
(48.6757°N, 10.4375°E)
Time: 08:28:19
(UTC+00:00)

CZ-2C R/B - Pass Details

Date: 03 August 2024
Orbit: 703 x 903 km, 98.2° (Epoch: 16 September)

Event Time Altitude Azimuth Distance (km) Brightness Sun altitude
Rises 00:55:13 0° 19° (NNE) 3,127 7.7 -20.9°
Reaches altitude 10° 00:57:32 10° 25° (NNE) 2,218 6.6 -20.7°
Maximum altitude 01:02:13 46° 99° (E) 986 3.6 -20.4°
Enters shadow 01:04:26 28° 155° (SSE) 1,376 4.0 -20.3°
